Dark Charmeleon

Dark Charmeleon
0 Ratings
Card # / Rarity 32 / Uncommon
Type / Stage Fire / Stage 1
Attacks

[2] Tail Slap (20)

[RRR] Fireball (70)
Use this attack only if there are any R Energy cards attached to Dark Charmeleon. Flip a coin. If heads, discard 1 of those Energy cards. If tails, this attack does nothing (not even damage).

Other W / None / 2
Set Team Rocket
Character(s) Charmeleon /
Current Price

$2.94 -19.45%

Last 7 Days -3.61%
Last 30 Days -10.37%
YTD -9.82%
TEAM ROCKET
TOP 10

PRICE HISTORY


Date
Price
Trend
2023-01-28 20:00:00<.span> Jan 28th, 2023 8PM $2.94 -
2023-01-28 18:00:00<.span> Jan 28th, 2023 6PM $2.94 -
2023-01-28 16:00:00<.span> Jan 28th, 2023 4PM $2.94 -
2023-01-28 14:00:00<.span> Jan 28th, 2023 2PM $2.94 -
2023-01-28 12:00:00<.span> Jan 28th, 2023 12PM $2.94 -
2023-01-28 10:00:00<.span> Jan 28th, 2023 10AM $2.94 -
2023-01-28 08:00:00<.span> Jan 28th, 2023 8AM $2.94 -
2023-01-28 06:00:00<.span> Jan 28th, 2023 6AM $2.94 -
2023-01-28 04:00:00<.span> Jan 28th, 2023 4AM $3.01 $0.07
2023-01-28 02:00:00<.span> Jan 28th, 2023 2AM $3.01 -
2023-01-28 00:00:00<.span> Jan 28th, 2023 12AM $3.01 -
2023-01-27 22:00:00<.span> Jan 27th, 2023 10PM $3.01 -
2023-01-27 20:00:00<.span> Jan 27th, 2023 8PM $3.01 -
2023-01-27 18:00:00<.span> Jan 27th, 2023 6PM $3.01 -
2023-01-27 16:00:00<.span> Jan 27th, 2023 4PM $3.01 -
2023-01-27 14:00:00<.span> Jan 27th, 2023 2PM $3.01 -
2023-01-27 12:00:00<.span> Jan 27th, 2023 12PM $3.01 -
2023-01-27 10:00:00<.span> Jan 27th, 2023 10AM $3.01 -
2023-01-27 08:00:00<.span> Jan 27th, 2023 8AM $3.01 -
2023-01-27 06:00:00<.span> Jan 27th, 2023 6AM $3.01 -
2023-01-27 04:00:00<.span> Jan 27th, 2023 4AM $3.01 -
2023-01-27 02:00:00<.span> Jan 27th, 2023 2AM $3.01 -
2023-01-27 00:00:00<.span> Jan 27th, 2023 12AM $3.01 -
2023-01-26 22:00:00<.span> Jan 26th, 2023 10PM $3.01 -
2023-01-26 20:00:00<.span> Jan 26th, 2023 8PM $3.01 -
2023-01-25 18:00:00<.span> Jan 25th, 2023 6PM $3.02 $0.01
2023-01-25 16:00:00<.span> Jan 25th, 2023 4PM $3.02 -
2023-01-25 14:00:00<.span> Jan 25th, 2023 2PM $3.02 -
2023-01-25 12:00:00<.span> Jan 25th, 2023 12PM $3.02 -
2023-01-25 10:00:00<.span> Jan 25th, 2023 10AM $3.02 -
2023-01-25 08:00:00<.span> Jan 25th, 2023 8AM $3.02 -
2023-01-25 06:00:00<.span> Jan 25th, 2023 6AM $3.02 -
2023-01-25 04:00:00<.span> Jan 25th, 2023 4AM $3.02 -
2023-01-25 02:00:00<.span> Jan 25th, 2023 2AM $3.02 -
2023-01-25 00:00:00<.span> Jan 25th, 2023 12AM $3.02 -
2023-01-24 22:00:00<.span> Jan 24th, 2023 10PM $3.02 -
2023-01-24 20:00:00<.span> Jan 24th, 2023 8PM $3.02 -
2023-01-24 18:00:00<.span> Jan 24th, 2023 6PM $3.02 -
2023-01-24 16:00:00<.span> Jan 24th, 2023 4PM $3.02 -
2023-01-24 14:00:00<.span> Jan 24th, 2023 2PM $3.02 -
2023-01-24 12:00:00<.span> Jan 24th, 2023 12PM $3.02 -
2023-01-24 10:00:00<.span> Jan 24th, 2023 10AM $3.02 -
2023-01-24 08:00:00<.span> Jan 24th, 2023 8AM $3.02 -
2023-01-24 06:00:00<.span> Jan 24th, 2023 6AM $3.02 -
2023-01-24 04:00:00<.span> Jan 24th, 2023 4AM $3.02 -
2023-01-24 02:00:00<.span> Jan 24th, 2023 2AM $3.02 -
2023-01-24 00:00:00<.span> Jan 24th, 2023 12AM $3.02 -
2023-01-23 22:00:00<.span> Jan 23rd, 2023 10PM $3.02 -
2023-01-23 20:00:00<.span> Jan 23rd, 2023 8PM $3.02 -
2023-01-22 14:00:00<.span> Jan 22nd, 2023 2PM $3.05 $0.03
2023-01-22 12:00:00<.span> Jan 22nd, 2023 12PM $3.05 -
2023-01-22 10:00:00<.span> Jan 22nd, 2023 10AM $3.05 -
2023-01-22 08:00:00<.span> Jan 22nd, 2023 8AM $3.05 -
2023-01-22 06:00:00<.span> Jan 22nd, 2023 6AM $3.05 -
2023-01-22 04:00:00<.span> Jan 22nd, 2023 4AM $3.05 -
2023-01-22 02:00:00<.span> Jan 22nd, 2023 2AM $3.05 -
2023-01-22 00:00:00<.span> Jan 22nd, 2023 12AM $3.05 -
2023-01-21 22:00:00<.span> Jan 21st, 2023 10PM $3.05 -
2023-01-21 20:00:00<.span> Jan 21st, 2023 8PM $3.05 -
2023-01-21 18:00:00<.span> Jan 21st, 2023 6PM $3.05 -
2023-01-21 16:00:00<.span> Jan 21st, 2023 4PM $3.05 -
2023-01-21 14:00:00<.span> Jan 21st, 2023 2PM $3.05 -
2023-01-21 12:00:00<.span> Jan 21st, 2023 12PM $3.02 $-0.03
2023-01-21 10:00:00<.span> Jan 21st, 2023 10AM $3.02 -
2023-01-21 08:00:00<.span> Jan 21st, 2023 8AM $3.02 -
2023-01-21 06:00:00<.span> Jan 21st, 2023 6AM $3.02 -
2023-01-19 20:00:00<.span> Jan 19th, 2023 8PM $3.04 $0.02
2023-01-19 04:00:00<.span> Jan 19th, 2023 4AM $2.98 $-0.06
2023-01-18 08:00:00<.span> Jan 18th, 2023 8AM $3.04 $0.06
2023-01-17 22:00:00<.span> Jan 17th, 2023 10PM $2.94 $-0.10
2023-01-17 20:00:00<.span> Jan 17th, 2023 8PM $2.94 -
2023-01-17 18:00:00<.span> Jan 17th, 2023 6PM $2.94 -
2023-01-17 16:00:00<.span> Jan 17th, 2023 4PM $2.94 -
2023-01-17 14:00:00<.span> Jan 17th, 2023 2PM $2.94 -
2023-01-17 12:00:00<.span> Jan 17th, 2023 12PM $2.94 -
2023-01-17 10:00:00<.span> Jan 17th, 2023 10AM $2.94 -
2023-01-17 08:00:00<.span> Jan 17th, 2023 8AM $2.94 -
2023-01-17 06:00:00<.span> Jan 17th, 2023 6AM $2.94 -
2023-01-17 04:00:00<.span> Jan 17th, 2023 4AM $2.94 -
2023-01-17 02:00:00<.span> Jan 17th, 2023 2AM $2.94 -
2023-01-17 00:00:00<.span> Jan 17th, 2023 12AM $2.94 -
2023-01-16 22:00:00<.span> Jan 16th, 2023 10PM $2.94 -
2023-01-16 20:00:00<.span> Jan 16th, 2023 8PM $2.94 -
2023-01-16 18:00:00<.span> Jan 16th, 2023 6PM $2.94 -
2023-01-16 16:00:00<.span> Jan 16th, 2023 4PM $2.94 -
2023-01-16 14:00:00<.span> Jan 16th, 2023 2PM $2.94 -
2023-01-16 12:00:00<.span> Jan 16th, 2023 12PM $2.94 -
2023-01-16 10:00:00<.span> Jan 16th, 2023 10AM $2.94 -
2023-01-16 08:00:00<.span> Jan 16th, 2023 8AM $2.94 -
2023-01-16 06:00:00<.span> Jan 16th, 2023 6AM $2.94 -
2023-01-16 04:00:00<.span> Jan 16th, 2023 4AM $2.94 -
2023-01-16 02:00:00<.span> Jan 16th, 2023 2AM $2.97 $0.03
2023-01-16 00:00:00<.span> Jan 16th, 2023 12AM $2.97 -
2023-01-15 22:00:00<.span> Jan 15th, 2023 10PM $2.97 -
2023-01-15 20:00:00<.span> Jan 15th, 2023 8PM $2.97 -
2023-01-15 18:00:00<.span> Jan 15th, 2023 6PM $2.97 -
2023-01-15 16:00:00<.span> Jan 15th, 2023 4PM $2.97 -
2023-01-15 14:00:00<.span> Jan 15th, 2023 2PM $2.97 -
2023-01-15 12:00:00<.span> Jan 15th, 2023 12PM $2.97 -
2023-01-15 10:00:00<.span> Jan 15th, 2023 10AM $2.97 -
Name
Set
Rarity
Price
Trend
Charmeleon Charmeleon Charmeleon Base Set (Shadowless) Uncommon $ 7.97 -0.99%
Charmeleon Charmeleon Charmeleon Generations: Radiant Collection Common $ 4.77 0.85%
Charmeleon Charmeleon Charmeleon Evolutions Uncommon $ 1.03 9.57%
Charmeleon - 19/147 (Premium Collection Promo) Charmeleon 19 147 Premium Collection Promo Charmeleon 19 147 Premium Collection Promo Miscellaneous Cards & Products Promo $ 1.16 -2.52%
Charmeleon Charmeleon Charmeleon Burning Shadows Uncommon $ 0.10 -9.09%
Charmeleon Charmeleon Charmeleon Dragon Majesty Uncommon $ 0.81 1.25%
Dark Charmeleon (W Stamped Promo) Dark Charmeleon W Stamped Promo Dark Charmeleon W Stamped Promo WoTC Promo Promo $ 149.99 28.75%
Charmeleon Charmeleon Charmeleon Team Up Uncommon $ 0.26 4.00%
Charmeleon Charmeleon Charmeleon Hidden Fates Uncommon $ 0.29 -3.33%
Charmeleon Charmeleon Charmeleon Hidden Fates: Shiny Vault Shiny Holo Rare $ 13.15 0.15%
Charmeleon Charmeleon Charmeleon Vivid Voltage Uncommon $ 0.20 -4.76%
Charmeleon Charmeleon Charmeleon Pokemon GO TCG Uncommon $ 0.08 -11.11%
Charmeleon Charmeleon Charmeleon Base Set Uncommon $ 1.15 6.48%
Charmeleon Charmeleon Charmeleon Base Set 2 Uncommon $ 1.36 -2.16%
Blaine's Charmeleon Blaines Charmeleon Blaines Charmeleon Gym Challenge Uncommon $ 2.12 1.92%
Charmeleon Charmeleon Charmeleon Legendary Collection Uncommon $ 1.05 3.96%
Charmeleon Charmeleon Charmeleon Expedition Uncommon $ 7.96 -0.75%
Charmeleon Charmeleon Charmeleon Dragon Secret Rare $ 57.98 -6.44%
Charmeleon Charmeleon Charmeleon FireRed & LeafGreen Uncommon $ 0.94 -3.09%
Charmeleon Charmeleon Charmeleon Team Rocket Returns Secret Rare $ 59.98 53.91%
Charmeleon Charmeleon Charmeleon EX Trainer Kit 2: Plusle & Minun Common $ 0.87 -10.31%
Charmeleon Charmeleon Charmeleon Crystal Guardians Uncommon $ 13.75 4.48%
Charmeleon Charmeleon Charmeleon Power Keepers Uncommon $ 28.56 6.29%
Charmeleon Charmeleon Charmeleon Secret Wonders Uncommon $ 10.58 1.15%
Charmeleon Charmeleon Charmeleon Stormfront Secret Rare $ 74.99 11.11%
Charmeleon Charmeleon Charmeleon Arceus Uncommon $ 1.07 -1.83%
Charmeleon Charmeleon Charmeleon Boundaries Crossed Uncommon $ 1.42 2.90%
Charmeleon Charmeleon Charmeleon Legendary Treasures Uncommon $ 1.29 6.61%
Charmeleon (Delta Species) Charmeleon Delta Species Charmeleon Delta Species Crystal Guardians Uncommon $ 23.39 -22.01%
Charmeleon (Delta Species) Charmeleon Delta Species Charmeleon Delta Species POP Series 5 Uncommon $ 23.59 -0.63%
Dark Charmeleon Dark Charmeleon Dark Charmeleon Team Rocket Uncommon $ 2.94 -2.65%
Charmeleon

Charmeleon
Base Set (Shadowless)
$ 7.97 — -0.99%

Charmeleon

Charmeleon
Evolutions
$ 1.03 — 9.57%

Charmeleon

Charmeleon
Burning Shadows
$ 0.10 — -9.09%

Charmeleon

Charmeleon
Dragon Majesty
$ 0.81 — 1.25%

Charmeleon

Charmeleon
Team Up
$ 0.26 — 4.00%

Charmeleon

Charmeleon
Hidden Fates
$ 0.29 — -3.33%

Charmeleon

Charmeleon
Vivid Voltage
$ 0.20 — -4.76%

Charmeleon

Charmeleon
Pokemon GO TCG
$ 0.08 — -11.11%

Charmeleon

Charmeleon
Base Set
$ 1.15 — 6.48%

Charmeleon

Charmeleon
Base Set 2
$ 1.36 — -2.16%

Charmeleon

Charmeleon
Legendary Collection
$ 1.05 — 3.96%

Charmeleon

Charmeleon
Expedition
$ 7.96 — -0.75%

Charmeleon

Charmeleon
Dragon
$ 57.98 — -6.44%

Charmeleon

Charmeleon
FireRed & LeafGreen
$ 0.94 — -3.09%

Charmeleon

Charmeleon
Team Rocket Returns
$ 59.98 — 53.91%

Charmeleon

Charmeleon
Crystal Guardians
$ 13.75 — 4.48%

Charmeleon

Charmeleon
Power Keepers
$ 28.56 — 6.29%

Charmeleon

Charmeleon
Secret Wonders
$ 10.58 — 1.15%

Charmeleon

Charmeleon
Stormfront
$ 74.99 — 11.11%

Charmeleon

Charmeleon
Arceus
$ 1.07 — -1.83%

Charmeleon

Charmeleon
Boundaries Crossed
$ 1.42 — 2.90%

Charmeleon

Charmeleon
Legendary Treasures
$ 1.29 — 6.61%

Dark Charmeleon

Dark Charmeleon
Team Rocket
$ 2.94 — -2.65%